Notices

What's New in latest Release from April 7th, 2021:

- Updated Glossary, including Speed of Maximum Gust, and Total Hourly Precipitation

- Updated national and regional climate services offices contacts and prices information

- Addition of station inventory lists for 1981-2010, 1971-2000, and 1961-1990 Normals.

If you haven't already, please take our survey and provide feedback about our website: https://eccc.sondage-survey.ca/f/LanguageSelection.aspx?s=442ca660-fcf1-47c0-95a9-59707d6fd709

Hourly Data Report for September 04, 2019

QUALICUM BEACH AIRPORT
BRITISH COLUMBIA
Current Station Operator: ECCC - MSC

49°20'14.000" N
124°23'38.000" W
58.20 m
1026562
71766
VOQ

Download Data

Hourly Data (September 2019)
Hourly Data Report for September 4, 2019
TIME
LST
Temp Definition
°C
Dew Point Definition
°C
Rel Hum Definition
%
Precip. Amount Definition
mm

Wind Dir Definition
10's deg

Wind Spd Definition
km/h
Visibility Definition
km
Stn Press Definition
kPa
Hmdx Definition


Wind Chill Definition


Weather Definition


00:00 16.8 13.2 79 0.0 28 7   100.94     LegendNANA
01:00 16.5 13.0 80 0.0 29 8   101.00     LegendNANA
02:00 15.5 12.9 84 0.0 27 6   101.02     LegendNANA
03:00 15.9 13.1 84 0.0 29 7   101.05     LegendNANA
04:00 13.4 11.9 91 0.0 23 2   101.05     LegendNANA
05:00 12.9 11.9 93 0.0 29 3   101.10     LegendNANA
06:00 13.3 12.1 93 0.0 29 2   101.16     LegendNANA
07:00 13.5 12.1 92 0.0 0 1   101.21     LegendNANA
08:00 16.6 13.1 80 0.0 34 8   101.25     LegendNANA
09:00 17.3 12.6 74 0.0 32 8   101.25     LegendNANA
10:00 19.2 12.6 65 0.0 4 6   101.24     LegendNANA
11:00 19.8 12.5 63 0.0 1 7   101.22     LegendNANA
12:00 20.8 13.0 61 0.0 34 11   101.22     LegendNANA
13:00 20.1 12.4 61 0.0 35 10   101.18     LegendNANA
14:00 21.2 12.8 59 0.0 3 6   101.13     LegendNANA
15:00 21.8 12.7 56 0.0 3 6   101.08     LegendNANA
16:00 21.6 12.9 58 0.0 2 5   101.03     LegendNANA
17:00 21.5 13.3 59 0.0 1 4   101.03     LegendNANA
18:00 21.0 13.1 60 0.0 33 7   101.00     LegendNANA
19:00 18.2 12.9 71 0.0 27 2   101.01     LegendNANA
20:00 16.2 12.8 80 0.0 24 3   101.02     LegendNANA
21:00 16.1 12.8 81 0.0 27 4   101.01     LegendNANA
22:00 15.3 12.8 85 0.0 25 3   101.04     LegendNANA
23:00 15.7 12.7 82 0.0 29 6   101.05     LegendNANA

Notes on Data Quality.

Legend

  • E = Estimated
  • M = Missing
  • NA = Not Available*
  • [empty] = Indicates an unobserved value
Date modified: